Change the Weather History Date:

Saturday, November 19, 2011

  Actual Average Record
Temperature  
Mean Temperature 40 °F -  
Max Temperature 53 °F 50 °F 74 °F (1985)
Min Temperature 28 °F 31 °F 12 °F (2014)
Degree Days  
Heating Degree Days 24    
Moisture  
Dew Point 28 °F    
Average Humidity 53    
Maximum Humidity 75    
Minimum Humidity 37    
Precipitation  
Precipitation 0.00 in - - ()
Sea Level Pressure  
Sea Level Pressure 30.21 in    
Wind  
Wind Speed 5 mph (SW)    
Max Wind Speed 17 mph    
Max Gust Speed 25 mph    
Visibility 10 miles    
Events      
Averages and records for this station are not official NWS values.
T = Trace of Precipitation, MM = Missing Value Source: NWS Daily Summary

Daily Weather History Graph

Daily Weather History Graph

Search for Another Location

Airport or City:

Trip Planner

Search our weather history database for the weather conditions in past years. The results will help you decide how hot, cold, wet, or windy it might be!

Date:

Astronomy

Nov. 19, 2011 Rise Set
Actual Time 7:07 AM EST 4:55 PM EST
Civil Twilight 6:37 AM EST 5:25 PM EST
Nautical Twilight 6:04 AM EST 5:58 PM EST
Astronomical Twilight 5:32 AM EST 6:31 PM EST
Moon 12:24 AM EST (11/19) 1:14 PM EST (11/19)
Length of Visible Light 10h 47m
Length of Day
9h 48m
Last Quarter, 38% of the Moon is Illuminated
Nov 19
Last Quarter
Nov 25
New
Dec 2
First Quarter
Dec 10
Full
Dec 17
Last Quarter

Hourly Weather History & Observations

Time (EST) Temp. Windchill Dew Point Humidity Pressure Visibility Wind Dir Wind Speed Gust Speed Precip Events Conditions
12:15 AM 35.6 °F 31.7 °F 17.6 °F 48% 30.23 in 10.0 mi South 4.6 mph - N/A   Scattered Clouds
12:35 AM 37.4 °F - 17.6 °F 45% 30.23 in 10.0 mi Calm Calm - N/A   Scattered Clouds
12:55 AM 37.4 °F - 17.6 °F 45% 30.23 in 10.0 mi Calm Calm - N/A   Mostly Cloudy
1:15 AM 37.4 °F - 17.6 °F 45% 30.23 in 10.0 mi Calm Calm - N/A   Scattered Clouds
1:35 AM 37.4 °F - 17.6 °F 45% 30.23 in 10.0 mi Calm Calm - N/A   Scattered Clouds
1:55 AM 37.4 °F - 15.8 °F 41% 30.23 in 10.0 mi Calm Calm - N/A   Scattered Clouds
2:15 AM 37.4 °F - 17.6 °F 45% 30.23 in 10.0 mi Calm Calm - N/A   Scattered Clouds
2:35 AM 37.4 °F - 17.6 °F 45% 30.23 in 10.0 mi Calm Calm - N/A   Scattered Clouds
2:55 AM 37.4 °F - 17.6 °F 45% 30.23 in 10.0 mi Calm Calm - N/A   Scattered Clouds
3:15 AM 37.4 °F - 17.6 °F 45% 30.23 in 10.0 mi Calm Calm - N/A   Mostly Cloudy
3:35 AM 37.4 °F - 19.4 °F 48% 30.23 in 10.0 mi Calm Calm - N/A   Overcast
3:55 AM 35.6 °F - 21.2 °F 56% 30.23 in 10.0 mi Calm Calm - N/A   Mostly Cloudy
4:15 AM 33.8 °F - 21.2 °F 60% 30.23 in 10.0 mi Calm Calm - N/A   Scattered Clouds
4:35 AM 32.0 °F - 23.0 °F 69% 30.24 in 10.0 mi Calm Calm - N/A   Clear
4:55 AM 30.2 °F - 23.0 °F 75% 30.24 in 10.0 mi Calm Calm - N/A   Clear
5:15 AM 30.2 °F - 21.2 °F 69% 30.24 in 10.0 mi Calm Calm - N/A   Clear
5:35 AM 30.2 °F 26.7 °F 21.2 °F 69% 30.24 in 10.0 mi East 3.5 mph - N/A   Clear
5:55 AM 30.2 °F - 21.2 °F 69% 30.25 in 10.0 mi Calm Calm - N/A   Clear
6:15 AM 28.4 °F 24.6 °F 21.2 °F 74% 30.25 in 10.0 mi East 3.5 mph - N/A   Clear
6:35 AM 28.4 °F - 21.2 °F 74% 30.26 in 10.0 mi Calm Calm - N/A   Clear
7:15 AM 28.4 °F - 21.2 °F 74% 30.27 in 10.0 mi Calm Calm - N/A   Clear
7:35 AM 32.0 °F - 19.4 °F 60% 30.27 in 10.0 mi Calm Calm - N/A   Clear
7:55 AM 39.2 °F 35.0 °F 19.4 °F 45% 30.28 in 10.0 mi WSW 5.8 mph - N/A   Clear
8:15 AM 42.8 °F 38.0 °F 19.4 °F 39% 30.28 in 10.0 mi WSW 8.1 mph - N/A   Clear
8:35 AM 44.6 °F 39.2 °F 21.2 °F 39% 30.29 in 10.0 mi WSW 10.4 mph - N/A   Clear
8:55 AM 46.4 °F 41.9 °F 21.2 °F 37% 30.28 in 10.0 mi WSW 9.2 mph 16.1 mph N/A   Clear
9:15 AM 46.4 °F 41.9 °F 23.0 °F 40% 30.28 in 10.0 mi WSW 9.2 mph - N/A   Clear
9:35 AM 48.2 °F - 24.8 °F 40% 30.28 in 10.0 mi WSW 12.7 mph 19.6 mph N/A   Clear
9:55 AM 50.0 °F - 26.6 °F 40% 30.28 in 10.0 mi WSW 16.1 mph 19.6 mph N/A   Clear
10:15 AM 50.0 °F - 28.4 °F 43% 30.28 in 10.0 mi WSW 11.5 mph - N/A   Clear
10:35 AM 50.0 °F - 30.2 °F 47% 30.28 in 10.0 mi WSW 13.8 mph 21.9 mph N/A   Clear
10:55 AM 51.8 °F - 30.2 °F 44% 30.28 in 10.0 mi WSW 11.5 mph 20.7 mph N/A   Clear
11:15 AM 51.8 °F - 32.0 °F 47% 30.26 in 10.0 mi WSW 13.8 mph - N/A   Clear
11:55 AM 53.6 °F - 33.8 °F 47% 30.23 in 10.0 mi SW 15.0 mph 20.7 mph N/A   Clear
12:15 PM 53.6 °F - 35.6 °F 51% 30.22 in 10.0 mi WSW 16.1 mph 20.7 mph N/A   Clear
12:35 PM 53.6 °F - 35.6 °F 51% 30.21 in 10.0 mi West 11.5 mph 16.1 mph N/A   Clear
12:55 PM 53.6 °F - 35.6 °F 51% 30.20 in 10.0 mi SW 13.8 mph 19.6 mph N/A   Clear
1:15 PM 53.6 °F - 35.6 °F 51% 30.19 in 10.0 mi WSW 10.4 mph 18.4 mph N/A   Clear
1:35 PM 53.6 °F - 33.8 °F 47% 30.18 in 10.0 mi SW 11.5 mph 19.6 mph N/A   Clear
1:55 PM 53.6 °F - 33.8 °F 47% 30.18 in 10.0 mi SSW 17.3 mph 21.9 mph N/A   Clear
2:35 PM 53.6 °F - 35.6 °F 51% 30.16 in 10.0 mi WSW 12.7 mph 25.3 mph N/A   Clear
2:55 PM 53.6 °F - 35.6 °F 51% 30.17 in 10.0 mi WSW 10.4 mph 19.6 mph N/A   Clear
3:15 PM 53.6 °F - 35.6 °F 51% 30.16 in 10.0 mi WSW 16.1 mph 20.7 mph N/A   Clear
3:35 PM 53.6 °F - 35.6 °F 51% 30.16 in 10.0 mi SW 12.7 mph 16.1 mph N/A   Clear
3:55 PM 53.6 °F - 35.6 °F 51% 30.15 in 10.0 mi WSW 9.2 mph 21.9 mph N/A   Clear
4:15 PM 53.6 °F - 37.4 °F 54% 30.15 in 10.0 mi SW 9.2 mph - N/A   Clear
4:35 PM 51.8 °F - 37.4 °F 58% 30.16 in 10.0 mi SW 6.9 mph - N/A   Clear
4:55 PM 51.8 °F - 37.4 °F 58% 30.16 in 10.0 mi SW 6.9 mph - N/A   Clear
5:15 PM 51.8 °F - 37.4 °F 58% 30.16 in 10.0 mi SW 5.8 mph - N/A   Mostly Cloudy
5:35 PM 51.8 °F - 37.4 °F 58% 30.14 in 10.0 mi South 4.6 mph - N/A   Mostly Cloudy
5:55 PM 51.8 °F - 37.4 °F 58% 30.14 in 10.0 mi South 6.9 mph - N/A   Mostly Cloudy
6:35 PM 50.0 °F - 35.6 °F 58% 30.14 in 10.0 mi SSW 5.8 mph - N/A   Clear
7:15 PM 48.2 °F - 35.6 °F 62% 30.14 in 10.0 mi South 5.8 mph - N/A   Clear
7:35 PM 50.0 °F - 35.6 °F 58% 30.14 in 10.0 mi SSE 3.5 mph - N/A   Scattered Clouds
7:55 PM 48.2 °F - 35.6 °F 62% 30.14 in 10.0 mi South 8.1 mph - N/A   Mostly Cloudy
8:15 PM 48.2 °F - 33.8 °F 58% 30.14 in 10.0 mi South 5.8 mph - N/A   Overcast
8:35 PM 48.2 °F - 33.8 °F 58% 30.14 in 10.0 mi South 5.8 mph - N/A   Overcast
8:55 PM 48.2 °F - 32.0 °F 54% 30.13 in 10.0 mi South 8.1 mph - N/A   Overcast
9:15 PM 50.0 °F - 32.0 °F 50% 30.13 in 10.0 mi South 6.9 mph - N/A   Mostly Cloudy
9:35 PM 50.0 °F - 32.0 °F 50% 30.12 in 10.0 mi South 8.1 mph - N/A   Overcast
9:55 PM 50.0 °F - 32.0 °F 50% 30.12 in 10.0 mi South 5.8 mph - N/A   Overcast
10:15 PM 50.0 °F - 33.8 °F 54% 30.11 in 10.0 mi South 4.6 mph - N/A   Overcast
10:35 PM 50.0 °F - 33.8 °F 54% 30.10 in 10.0 mi South 4.6 mph - N/A   Overcast
10:55 PM 51.8 °F - 35.6 °F 54% 30.09 in 10.0 mi SW 5.8 mph - N/A   Overcast
11:15 PM 55.4 °F - 37.4 °F 51% 30.08 in 10.0 mi SW 9.2 mph - N/A   Overcast
11:35 PM 55.4 °F - 39.2 °F 54% 30.08 in 10.0 mi SW 10.4 mph 17.3 mph N/A   Overcast
11:55 PM 55.4 °F - 39.2 °F 54% 30.08 in 10.0 mi WSW 10.4 mph 17.3 mph N/A   Overcast